Regional Weather Roundup
Issued by NWS

Home | Current Version | Previous Version | Graphics & Text | Print | Product List | Glossary Off
Versions: 1 2 3 4 5 6 7 8 9 10 11 12 13 14 15 16 17 18 19 20 21 22 23 24 25 26 27 28 29 30 31 32 33 34 35 36 37 38 39 40 41 42 43 44 45 46 47 48 49 50

000
ASUS43 KLOT 262108
RWRIL

ILLINOIS REGIONAL WEATHER ROUNDUP
NATIONAL WEATHER SERVICE CHICAGO/ROMEOVILLE IL
400 PM CDT WED APR 26 2017

NOTE: "FAIR" INDICATES FEW OR NO CLOUDS BELOW 12,000 FEET WITH NO
SIGNIFICANT WEATHER AND/OR OBSTRUCTIONS TO VISIBILITY.

* THESE STATIONS ARE NOT UNDER NWS QUALITY CONTROL. THEY ALSO MAY NOT
  REPORT WEATHER SUCH AS PRECIPITATION OR FOG.

ILZ001-002-007-009-015-016-024-262200-
NORTHWEST ILLINOIS

CITY           SKY/WX    TMP DP  RH WIND       PRES   REMARKS
MOLINE         CLOUDY    52  47  83 W10       29.52F
STERLING*      CLOUDY    56  52  86 W13G21    29.51F
SAVANNA*       CLOUDY    53  49  88 SW12      29.54R
$$

ILZ003-004-008-010-011-017-018-262200-
NORTH CENTRAL ILLINOIS

CITY           SKY/WX    TMP DP  RH WIND       PRES   REMARKS
ROCKFORD       CLOUDY    63  55  75 SW12      29.50S
FREEPORT*      CLOUDY    55  52  89 SW16      29.53R
ROCHELLE*      CLOUDY    61  57  87 SW20      29.52R
DE KALB*       PTSUNNY   66  57  71 SW16G22   29.51R
PERU*          RAIN      60  57  90 W9        29.53R
$$

ILZ005-006-012>014-019>023-262200-
NORTHEAST ILLINOIS

CITY           SKY/WX    TMP DP  RH WIND       PRES   REMARKS
CHICAGO-OHARE  CLOUDY    72  55  55 SW9G21    29.47F
CHICAGO-MIDWAY PTSUNNY   76  55  48 SW14      29.47F
AURORA         CLOUDY    70  58  65 SW13      29.50R
LANSING*       MOSUNNY   76  58  54 SW18G24   29.49S
JOLIET*        MOSUNNY   76  57  52 SW9G20    29.49S
WAUKEGAN       CLOUDY    72  57  59 SW13G21   29.46R
DUPAGE AIRPORT CLOUDY    69  58  67 SW12      29.48S
KANKAKEE*      CLOUDY    77  56  48 SW15      29.50F
WHEELING       CLOUDY    72  57  59 SW13      29.48S
MORRIS*        CLOUDY    73  55  52 SW16      29.48S
ROMEOVILLE*    MOSUNNY   75  59  57 SW14      29.49S
NORTHERLY ISL    N/A     75  51  43 S16         N/A
$$

LMZ740>746-262200-
SOUTHERN LAKE MICHIGAN

STATION/POSITION SKY/WX   TEMP    WIND        PRES    VSBY  WAVE
                          AIR SEA DIR/SP/G                  HT/PER
                          (F)     (DEG/KT/KT) (MB)    (MI)  (FT/S)
SOUTHERN BUOY              49 42  200/  8/  8  998.6          1/ 4
HARRISON CRIB              73     210/ 16/ 19   N/A
BURNHAM HARBOR             75     200/ 12/ 16   N/A
CALUMET HARBOR             75     190/ 11/ 15  997.8F
BURNS HARBOR               74     220/ 16/ 25  998.6F
MICHIGAN CITY              69     240/ 22/ 25   N/A
MICHIGAN CITY 6N           58 50                N/A           2/ 4
ST. JOSEPH                 55 49  270/  8/ 10  998.8          2/ 3
$$

ILZ025>027-034>036-040-047-049-050-058-095>099-262200-
WEST-CENTRAL ILLINOIS

CITY           SKY/WX    TMP DP  RH WIND       PRES   REMARKS
QUINCY         LGT RAIN  51  49  92 NW9       29.54S FOG
GALESBURG*     CLOUDY    52  48  87 W7        29.53F
MACOMB*        CLOUDY    53  49  89 NW8       29.56F
JACKSONVILLE*  LGT RAIN  61  59  94 SE7       29.49F
PITTSFIELD*    CLOUDY    56  55  95 NW9       29.54R
$$

ILZ028>032-037-038-041>044-048-051>054-059>061-262200-
CENTRAL ILLINOIS

CITY           SKY/WX    TMP DP  RH WIND       PRES   REMARKS
PONTIAC        CLOUDY    75  54  48 SW18G24   29.51R
DECATUR        LGT RAIN  68  60  75 SW17G26   29.54R
PEORIA         LGT RAIN  59  58  96 NW6       29.51F FOG
LACON*         LGT RAIN  60  58  94 W5        29.53S
LINCOLN*       LGT RAIN  65  60  82 SW5       29.54S
SPRINGFIELD    LGT RAIN  63  59  87 S9        29.54F FOG
TAYLORVILLE    TSTM      63  59  89 SW14      29.57R
$$

ILZ033-039-045-046-055>057-062-063-262200-
EAST-CENTRAL ILLINOIS

CITY           SKY/WX    TMP DP  RH WIND       PRES   REMARKS
CHAMPAIGN      CLOUDY    78  51  38 SW20G28   29.52S
RANTOUL*       CLOUDY    79  55  43 SW18G30   29.52R
MATTOON        CLOUDY    75  59  57 SW10      29.52F
PARIS*         CLOUDY    80  56  43 SW15      29.53F HX  80
$$

ILZ079-100>102-262200-
SOUTHWEST ILLINOIS

CITY           SKY/WX    TMP DP  RH WIND       PRES   REMARKS
ALTON          CLOUDY    61  59  94 S6        29.50F
CAHOKIA*       LGT RAIN  63  60  90 SE5       29.50S
SPARTA*        CLOUDY    63  61  94 SW3       29.57R
$$

ILZ064>066-069>071-074>076-080>082-084>086-088>090-092>094-262200-
SOUTH-CENTRAL ILLINOIS

CITY           SKY/WX    TMP DP  RH WIND       PRES   REMARKS
CARBONDALE     NOT AVBL
CAIRO*         CLOUDY    65  56  72 NW10      29.54F
EFFINGHAM*     TSTM      72  62  71 W35G44    29.55R
MARION         LGT RAIN  61  61 100 NW8       29.58R
MT. VERNON     LGT RAIN  60  58  92 CALM      29.55F
CENTRALIA*     CLOUDY    62  60  96 CALM      29.53F
SALEM*         CLOUDY    62  60  93 NW6       29.54F
METROPOLIS*    CLOUDY    79  64  60 S10G17    29.53F HX  80
$$

ILZ067-068-072-073-078-083-087-091-262200-
SOUTHEAST ILLINOIS

CITY           SKY/WX    TMP DP  RH WIND       PRES   REMARKS
LAWRENCEVILLE  CLOUDY    82  63  52 SW20G26   29.50F HX  83
FLORA*         RAIN      74  64  71 W22G30    29.52S
FAIRFIELD*     CLOUDY    71  59  66 W12G24    29.55R
HARRISBURG*    CLOUDY    77  65  66 SW13G18   29.54S
ROBINSON*      PTSUNNY   80  60  50 SW12      29.51F HX  81
CARMI*         CLOUDY    79  64  61 S17G26    29.51F HX  80
$$

ABBREVIATIONS USED IN REMARKS
   TC - TEMPERATURE IN CELSIUS
  WCI - WIND CHILL INDEX
   HX - HEAT INDEX
  VSB - VISIBILITY
$$




USA.gov is the U.S. government's official web portal to all federal, state and local government web resources and services.